BTK6764 WADD-WALL

Flight info

Callsign BTK6764
Flight time 1h 26m
Altitude 35000
Route HOSTY W46 ISRUL
Aircraft A320/M-SDE3FGHIRWY/LB1

Departure

Time 2026-04-21 10:09
Airport Denpasar I Gusti Ngurah Rai International Airport (WADD)

Arrival

Time 2026-04-21 11:35
Airport Sultan Aji Muhammad Sulaiman Sepinggan International Airport (WALL)
Time Latitude Longitude Altitude Speed Heading
2026-04-21 09:55 -8.74571 115.16340 33 ft 0 kts 358°
2026-04-21 10:01 -8.74591 115.16341 33 ft 4 kts 356°
2026-04-21 10:02 -8.74644 115.16348 30 ft 4 kts 348°
2026-04-21 10:02 -8.74669 115.16354 31 ft 4 kts 338°
2026-04-21 10:02 -8.74690 115.16368 30 ft 4 kts 296°
2026-04-21 10:03 -8.74694 115.16376 30 ft 0 kts 268°
2026-04-21 10:05 -8.74694 115.16368 31 ft 4 kts 268°
2026-04-21 10:05 -8.74696 115.16323 33 ft 8 kts 268°
2026-04-21 10:05 -8.74699 115.16250 33 ft 13 kts 267°
2026-04-21 10:06 -8.74703 115.16145 33 ft 17 kts 268°
2026-04-21 10:06 -8.74709 115.16012 33 ft 21 kts 267°
2026-04-21 10:06 -8.74715 115.15848 33 ft 25 kts 268°
2026-04-21 10:06 -8.74722 115.15686 32 ft 20 kts 268°
2026-04-21 10:07 -8.74728 115.15530 32 ft 23 kts 268°
2026-04-21 10:07 -8.74738 115.15422 32 ft 13 kts 248°
2026-04-21 10:07 -8.74796 115.15391 31 ft 9 kts 179°
2026-04-21 10:07 -8.74878 115.15394 28 ft 10 kts 172°
2026-04-21 10:08 -8.74895 115.15457 29 ft 9 kts 87°
2026-04-21 10:08 -8.74890 115.15575 29 ft 38 kts 88°
2026-04-21 10:08 -8.74870 115.16101 29 ft 110 kts 87°
2026-04-21 10:08 -8.74829 115.17061 31 ft 161 kts 88°
2026-04-21 10:09 -8.74782 115.18214 622 ft 159 kts 88°
2026-04-21 10:09 -8.74744 115.19317 1360 ft 156 kts 87°
2026-04-21 10:09 -8.74702 115.20421 1919 ft 162 kts 86°
2026-04-21 10:09 -8.74649 115.21635 2225 ft 184 kts 86°
2026-04-21 10:10 -8.74589 115.23008 2489 ft 206 kts 86°
2026-04-21 10:10 -8.74522 115.24544 2758 ft 231 kts 86°
2026-04-21 10:10 -8.74450 115.26252 3131 ft 255 kts 86°
2026-04-21 10:10 -8.74372 115.28095 3747 ft 267 kts 86°
2026-04-21 10:11 -8.74293 115.29988 4612 ft 270 kts 86°
2026-04-21 10:11 -8.74218 115.31889 5453 ft 273 kts 86°
2026-04-21 10:11 -8.74142 115.33843 6305 ft 275 kts 86°
2026-04-21 10:11 -8.74066 115.35778 7109 ft 277 kts 86°
2026-04-21 10:12 -8.73987 115.37705 7870 ft 280 kts 86°
2026-04-21 10:12 -8.73906 115.39679 8622 ft 284 kts 86°
2026-04-21 10:12 -8.73826 115.41693 8922 ft 287 kts 86°
2026-04-21 10:12 -8.73746 115.43717 9250 ft 289 kts 86°
2026-04-21 10:13 -8.73662 115.45757 10048 ft 291 kts 86°
2026-04-21 10:13 -8.73532 115.47852 10387 ft 309 kts 81°
2026-04-21 10:13 -8.73000 115.50033 10546 ft 331 kts 69°
2026-04-21 10:13 -8.71940 115.52153 10909 ft 344 kts 56°
2026-04-21 10:14 -8.70404 115.54021 11485 ft 349 kts 45°
2026-04-21 10:14 -8.68665 115.55759 12124 ft 353 kts 45°
2026-04-21 10:14 -8.66917 115.57512 12756 ft 356 kts 45°
2026-04-21 10:14 -8.65151 115.59285 13381 ft 359 kts 45°
2026-04-21 10:15 -8.63374 115.61070 13950 ft 362 kts 45°
2026-04-21 10:15 -8.61579 115.62871 14482 ft 365 kts 45°
2026-04-21 10:15 -8.59761 115.64694 15029 ft 369 kts 45°
2026-04-21 10:15 -8.57908 115.66479 15591 ft 371 kts 40°
2026-04-21 10:16 -8.55728 115.67895 16084 ft 376 kts 26°
2026-04-21 10:16 -8.53245 115.68753 16590 ft 381 kts 13°
2026-04-21 10:16 -8.50587 115.68999 17060 ft 387 kts 359°
2026-04-21 10:16 -8.47894 115.68719 17536 ft 391 kts 354°
2026-04-21 10:17 -8.45186 115.68384 18025 ft 394 kts 354°
2026-04-21 10:17 -8.42450 115.68094 18443 ft 397 kts 356°
2026-04-21 10:17 -8.39687 115.67892 18848 ft 400 kts 358°
2026-04-21 10:17 -8.36895 115.67741 19250 ft 403 kts 359°
2026-04-21 10:18 -8.34089 115.67611 19659 ft 405 kts 359°
2026-04-21 10:18 -8.31262 115.67479 20047 ft 408 kts 359°
2026-04-21 10:18 -8.28416 115.67333 20424 ft 411 kts 358°
2026-04-21 10:18 -8.25547 115.67171 20810 ft 414 kts 358°
2026-04-21 10:19 -8.22667 115.66999 21175 ft 417 kts 358°
2026-04-21 10:19 -8.19763 115.66820 21544 ft 420 kts 356°
2026-04-21 10:19 -8.16831 115.66635 21861 ft 424 kts 356°
2026-04-21 10:19 -8.13906 115.66452 22183 ft 428 kts 356°
2026-04-21 10:20 -8.10927 115.66269 22540 ft 430 kts 356°
2026-04-21 10:20 -8.07889 115.66085 22865 ft 434 kts 356°
2026-04-21 10:20 -8.04868 115.65903 23223 ft 436 kts 356°
2026-04-21 10:20 -8.01824 115.65721 23521 ft 439 kts 356°
2026-04-21 10:21 -7.98772 115.65536 23832 ft 441 kts 356°
2026-04-21 10:21 -7.95701 115.65350 24140 ft 443 kts 356°
2026-04-21 10:21 -7.92657 115.65168 24436 ft 444 kts 356°
2026-04-21 10:21 -7.89531 115.64983 24761 ft 445 kts 356°
2026-04-21 10:22 -7.86469 115.64801 25053 ft 447 kts 357°
2026-04-21 10:22 -7.83320 115.64612 25330 ft 449 kts 357°
2026-04-21 10:22 -7.80190 115.64421 25595 ft 452 kts 357°
2026-04-21 10:22 -7.77051 115.64228 25905 ft 452 kts 357°
2026-04-21 10:23 -7.73905 115.64034 26200 ft 454 kts 357°
2026-04-21 10:23 -7.70750 115.63841 26512 ft 455 kts 357°
2026-04-21 10:23 -7.67628 115.63652 26795 ft 456 kts 357°
2026-04-21 10:23 -7.64455 115.63464 27080 ft 457 kts 357°
2026-04-21 10:24 -7.61281 115.63278 27382 ft 458 kts 356°
2026-04-21 10:24 -7.58092 115.63089 27671 ft 460 kts 357°
2026-04-21 10:24 -7.54897 115.62905 27953 ft 461 kts 357°
2026-04-21 10:24 -7.51692 115.62771 28228 ft 462 kts 359°
2026-04-21 10:25 -7.48473 115.62683 28499 ft 463 kts 359°
2026-04-21 10:25 -7.45250 115.62620 28754 ft 464 kts 359°
2026-04-21 10:25 -7.42018 115.62564 29008 ft 465 kts 359°
2026-04-21 10:25 -7.38776 115.62506 29253 ft 467 kts 359°
2026-04-21 10:26 -7.35522 115.62435 29505 ft 468 kts 359°
2026-04-21 10:26 -7.32261 115.62348 29750 ft 469 kts 359°
2026-04-21 10:26 -7.28992 115.62253 29980 ft 470 kts 359°
2026-04-21 10:26 -7.25719 115.62154 30196 ft 471 kts 358°
2026-04-21 10:27 -7.22448 115.62057 30491 ft 470 kts 359°
2026-04-21 10:27 -7.19180 115.61963 30795 ft 469 kts 359°
2026-04-21 10:27 -7.15923 115.61873 31064 ft 468 kts 359°
2026-04-21 10:27 -7.12673 115.61790 31344 ft 468 kts 359°
2026-04-21 10:28 -7.09415 115.61706 31649 ft 467 kts 359°
2026-04-21 10:28 -7.06177 115.61618 31935 ft 466 kts 359°
2026-04-21 10:28 -7.02940 115.61525 32242 ft 465 kts 359°
2026-04-21 10:28 -6.99708 115.61430 32551 ft 464 kts 359°
2026-04-21 10:29 -6.96491 115.61339 32860 ft 463 kts 359°
2026-04-21 10:29 -6.93269 115.61252 33175 ft 462 kts 359°
2026-04-21 10:29 -6.90070 115.61171 33488 ft 460 kts
2026-04-21 10:29 -6.86883 115.61377 33798 ft 458 kts
2026-04-21 10:30 -6.83769 115.62037 34022 ft 458 kts 14°
2026-04-21 10:30 -6.80664 115.62785 34224 ft 459 kts 14°
2026-04-21 10:30 -6.77559 115.63531 34448 ft 459 kts 14°
2026-04-21 10:30 -6.74461 115.64273 34683 ft 459 kts 14°
2026-04-21 10:31 -6.71347 115.65019 34808 ft 460 kts 14°
2026-04-21 10:31 -6.65121 115.66506 34844 ft 460 kts 14°
2026-04-21 10:32 -6.58908 115.67992 34844 ft 459 kts 14°
2026-04-21 10:32 -6.52678 115.69475 34845 ft 459 kts 14°
2026-04-21 10:33 -6.46463 115.70954 34842 ft 459 kts 14°
2026-04-21 10:33 -6.40236 115.72435 34844 ft 459 kts 14°
2026-04-21 10:34 -6.34015 115.73925 34844 ft 459 kts 14°
2026-04-21 10:34 -6.27799 115.75417 34843 ft 459 kts 14°
2026-04-21 10:35 -6.21574 115.76897 34845 ft 460 kts 14°
2026-04-21 10:35 -6.15354 115.78373 34838 ft 460 kts 14°
2026-04-21 10:36 -6.09133 115.79854 34846 ft 459 kts 14°
2026-04-21 10:36 -6.02908 115.81338 34844 ft 459 kts 14°
2026-04-21 10:37 -5.96690 115.82820 34843 ft 459 kts 14°
2026-04-21 10:37 -5.90473 115.84302 34843 ft 459 kts 14°
2026-04-21 10:38 -5.84253 115.85779 34840 ft 459 kts 14°
2026-04-21 10:38 -5.78031 115.87254 34837 ft 459 kts 14°
2026-04-21 10:39 -5.71801 115.88733 34839 ft 460 kts 14°
2026-04-21 10:39 -5.66637 115.89968 34836 ft 460 kts 14°
2026-04-21 10:40 -5.60403 115.91449 34840 ft 460 kts 14°
2026-04-21 10:40 -5.54172 115.92922 34841 ft 460 kts 14°
2026-04-21 10:41 -5.47941 115.94402 34839 ft 460 kts 14°
2026-04-21 10:41 -5.41715 115.95880 34835 ft 460 kts 14°
2026-04-21 10:42 -5.35485 115.97359 34835 ft 460 kts 14°
2026-04-21 10:42 -5.29253 115.98850 34838 ft 460 kts 14°
2026-04-21 10:43 -5.23009 116.00332 34839 ft 461 kts 14°
2026-04-21 10:43 -5.16772 116.01808 34841 ft 461 kts 14°
2026-04-21 10:44 -5.10535 116.03297 34843 ft 461 kts 14°
2026-04-21 10:44 -5.04295 116.04779 34838 ft 461 kts 14°
2026-04-21 10:45 -4.98094 116.06240 34843 ft 461 kts 14°
2026-04-21 10:45 -4.91811 116.07729 34842 ft 461 kts 14°
2026-04-21 10:46 -4.85613 116.09206 34838 ft 461 kts 14°
2026-04-21 10:46 -4.79333 116.10694 34840 ft 461 kts 14°
2026-04-21 10:47 -4.73124 116.12162 34835 ft 461 kts 14°
2026-04-21 10:47 -4.66887 116.13641 34836 ft 461 kts 14°
2026-04-21 10:48 -4.60642 116.15128 34837 ft 461 kts 14°
2026-04-21 10:48 -4.54400 116.16619 34839 ft 461 kts 14°
2026-04-21 10:49 -4.48154 116.18104 34844 ft 461 kts 14°
2026-04-21 10:49 -4.41903 116.19578 34846 ft 461 kts 14°
2026-04-21 10:50 -4.35665 116.21053 34844 ft 461 kts 14°
2026-04-21 10:50 -4.29425 116.22533 34847 ft 461 kts 14°
2026-04-21 10:51 -4.23188 116.24012 34845 ft 460 kts 14°
2026-04-21 10:51 -4.16951 116.25491 34845 ft 460 kts 14°
2026-04-21 10:52 -4.10718 116.26964 34849 ft 460 kts 14°
2026-04-21 10:52 -4.04491 116.28435 34852 ft 459 kts 14°
2026-04-21 10:53 -3.98275 116.29909 34855 ft 459 kts 14°
2026-04-21 10:53 -3.92067 116.31378 34853 ft 458 kts 14°
2026-04-21 10:54 -3.85866 116.32852 34852 ft 458 kts 14°
2026-04-21 10:54 -3.79668 116.34325 34854 ft 458 kts 14°
2026-04-21 10:55 -3.73448 116.35679 34847 ft 458 kts 11°
2026-04-21 10:55 -3.67135 116.36623 34848 ft 458 kts
2026-04-21 10:56 -3.60818 116.37443 34837 ft 458 kts
2026-04-21 10:56 -3.54508 116.38346 34840 ft 458 kts
2026-04-21 10:57 -3.48251 116.39309 34845 ft 458 kts 10°
2026-04-21 10:57 -3.41953 116.40274 34846 ft 458 kts
2026-04-21 10:58 -3.35658 116.41228 34846 ft 458 kts 10°
2026-04-21 10:58 -3.29317 116.42179 34841 ft 458 kts
2026-04-21 10:59 -3.23058 116.43119 34841 ft 457 kts
2026-04-21 10:59 -3.16725 116.44073 34842 ft 457 kts
2026-04-21 11:00 -3.10439 116.45023 34842 ft 457 kts
2026-04-21 11:00 -3.04142 116.45975 34835 ft 458 kts
2026-04-21 11:00 -3.01032 116.46443 34618 ft 458 kts
2026-04-21 11:01 -2.97851 116.46924 34386 ft 458 kts
2026-04-21 11:01 -2.94693 116.47399 34167 ft 458 kts
2026-04-21 11:01 -2.91578 116.47866 33942 ft 459 kts
2026-04-21 11:02 -2.85215 116.48821 32330 ft 468 kts
2026-04-21 11:02 -2.81929 116.49315 31266 ft 475 kts 10°
2026-04-21 11:02 -2.78692 116.49801 30472 ft 476 kts
2026-04-21 11:02 -2.75434 116.50292 29842 ft 472 kts
2026-04-21 11:03 -2.72199 116.50779 29100 ft 469 kts
2026-04-21 11:03 -2.68985 116.51261 28444 ft 463 kts
2026-04-21 11:03 -2.65819 116.51737 27796 ft 459 kts
2026-04-21 11:03 -2.62665 116.52214 27148 ft 456 kts
2026-04-21 11:04 -2.59541 116.52686 26516 ft 452 kts
2026-04-21 11:04 -2.56438 116.53152 25879 ft 449 kts
2026-04-21 11:04 -2.53362 116.53614 25255 ft 447 kts
2026-04-21 11:04 -2.50291 116.54074 24634 ft 444 kts
2026-04-21 11:05 -2.47240 116.54534 24035 ft 442 kts
2026-04-21 11:05 -2.44220 116.54985 23443 ft 439 kts
2026-04-21 11:05 -2.41208 116.55433 22818 ft 435 kts
2026-04-21 11:05 -2.38231 116.55879 22278 ft 430 kts
2026-04-21 11:06 -2.35292 116.56322 21767 ft 424 kts
2026-04-21 11:06 -2.32384 116.56763 21258 ft 420 kts
2026-04-21 11:06 -2.29514 116.57200 20768 ft 415 kts
2026-04-21 11:06 -2.26681 116.57629 20278 ft 410 kts
2026-04-21 11:07 -2.23870 116.58051 19770 ft 407 kts 10°
2026-04-21 11:07 -2.21077 116.58470 19267 ft 403 kts
2026-04-21 11:07 -2.18316 116.58885 18753 ft 401 kts
2026-04-21 11:07 -2.15564 116.59300 18237 ft 399 kts
2026-04-21 11:08 -2.12823 116.59711 17663 ft 397 kts 10°
2026-04-21 11:08 -2.10106 116.60118 17135 ft 394 kts
2026-04-21 11:08 -2.07403 116.60524 16609 ft 391 kts
2026-04-21 11:08 -2.04728 116.60926 16087 ft 388 kts
2026-04-21 11:09 -2.02064 116.61330 15570 ft 386 kts 10°
2026-04-21 11:09 -1.99417 116.61732 15055 ft 383 kts
2026-04-21 11:09 -1.96795 116.62128 14539 ft 381 kts 10°
2026-04-21 11:09 -1.94175 116.62524 14025 ft 380 kts
2026-04-21 11:10 -1.91562 116.62917 13490 ft 378 kts 10°
2026-04-21 11:10 -1.88978 116.63306 12943 ft 375 kts
2026-04-21 11:10 -1.86405 116.63691 12426 ft 371 kts
2026-04-21 11:10 -1.83863 116.64073 11905 ft 368 kts
2026-04-21 11:11 -1.81344 116.64452 11374 ft 364 kts 10°
2026-04-21 11:11 -1.78850 116.64826 10859 ft 360 kts 10°
2026-04-21 11:11 -1.76390 116.65197 10371 ft 356 kts 10°
2026-04-21 11:11 -1.73994 116.65557 10225 ft 341 kts 10°
2026-04-21 11:12 -1.71693 116.65903 10117 ft 327 kts
2026-04-21 11:12 -1.69489 116.66232 10001 ft 314 kts
2026-04-21 11:12 -1.67365 116.66549 9885 ft 303 kts
2026-04-21 11:12 -1.65316 116.66854 9720 ft 294 kts
2026-04-21 11:13 -1.63297 116.67158 9339 ft 292 kts
2026-04-21 11:13 -1.61291 116.67462 8972 ft 290 kts 10°
2026-04-21 11:13 -1.59306 116.67759 8620 ft 287 kts 10°
2026-04-21 11:13 -1.57327 116.68057 8240 ft 286 kts 10°
2026-04-21 11:14 -1.55376 116.68351 7895 ft 283 kts
2026-04-21 11:14 -1.53431 116.68644 7504 ft 282 kts 10°
2026-04-21 11:14 -1.51491 116.68936 7023 ft 284 kts
2026-04-21 11:14 -1.49558 116.69225 6588 ft 284 kts
2026-04-21 11:15 -1.47586 116.69522 6187 ft 282 kts 10°
2026-04-21 11:15 -1.45675 116.69810 5788 ft 277 kts
2026-04-21 11:15 -1.43793 116.70094 5418 ft 263 kts
2026-04-21 11:15 -1.42056 116.70353 5081 ft 249 kts
2026-04-21 11:16 -1.40363 116.70607 4733 ft 236 kts
2026-04-21 11:16 -1.38774 116.70845 4416 ft 226 kts
2026-04-21 11:16 -1.37248 116.71073 4100 ft 218 kts
2026-04-21 11:16 -1.35842 116.71444 3815 ft 208 kts 28°
2026-04-21 11:17 -1.34750 116.72361 3537 ft 201 kts 53°
2026-04-21 11:17 -1.34083 116.73567 3267 ft 196 kts 61°
2026-04-21 11:17 -1.33460 116.74763 3013 ft 193 kts 60°
2026-04-21 11:17 -1.32851 116.75924 2750 ft 188 kts 60°
2026-04-21 11:18 -1.32249 116.77070 2475 ft 184 kts 61°
2026-04-21 11:18 -1.31662 116.78193 2222 ft 180 kts 61°
2026-04-21 11:18 -1.31117 116.79289 1972 ft 169 kts 64°
2026-04-21 11:18 -1.30679 116.80304 1779 ft 152 kts 65°
2026-04-21 11:19 -1.30288 116.81237 1579 ft 141 kts 65°
2026-04-21 11:19 -1.29913 116.82129 1369 ft 138 kts 65°
2026-04-21 11:19 -1.29542 116.83014 1188 ft 138 kts 65°
2026-04-21 11:19 -1.29173 116.83892 1010 ft 137 kts 66°
2026-04-21 11:20 -1.28800 116.84778 829 ft 139 kts 67°
2026-04-21 11:20 -1.28430 116.85670 670 ft 140 kts 67°
2026-04-21 11:20 -1.28059 116.86571 492 ft 140 kts 66°
2026-04-21 11:20 -1.27664 116.87459 306 ft 139 kts 63°
2026-04-21 11:21 -1.27299 116.88355 95 ft 139 kts 66°
2026-04-21 11:21 -1.26941 116.89206 29 ft 122 kts 64°
2026-04-21 11:21 -1.26586 116.90036 289 ft 140 kts 65°
2026-04-21 11:21 -1.26171 116.91016 925 ft 161 kts 65°
2026-04-21 11:22 -1.25779 116.92074 1801 ft 164 kts 73°
2026-04-21 11:22 -1.25889 116.93279 2119 ft 194 kts 112°
2026-04-21 11:22 -1.26970 116.94195 2469 ft 217 kts 159°
2026-04-21 11:22 -1.28559 116.94281 2499 ft 240 kts 187°
2026-04-21 11:23 -1.30176 116.93879 2484 ft 241 kts 197°
2026-04-21 11:23 -1.31767 116.93329 2481 ft 242 kts 200°
2026-04-21 11:23 -1.33357 116.92755 2483 ft 248 kts 199°
2026-04-21 11:23 -1.35014 116.92179 2481 ft 255 kts 198°
2026-04-21 11:24 -1.36706 116.91620 2481 ft 257 kts 197°
2026-04-21 11:24 -1.38337 116.90909 2473 ft 256 kts 219°
2026-04-21 11:24 -1.39406 116.89524 2487 ft 254 kts 245°
2026-04-21 11:24 -1.40096 116.87907 2485 ft 251 kts 252°
2026-04-21 11:25 -1.40468 116.86817 2483 ft 251 kts 253°
2026-04-21 11:25 -1.40995 116.85156 2519 ft 249 kts 255°
2026-04-21 11:25 -1.41523 116.83501 2518 ft 251 kts 254°
2026-04-21 11:25 -1.42070 116.81854 2518 ft 250 kts 254°
2026-04-21 11:26 -1.42637 116.80203 2519 ft 250 kts 253°
2026-04-21 11:26 -1.43208 116.78580 2515 ft 246 kts 253°
2026-04-21 11:26 -1.43462 116.76926 2509 ft 237 kts 278°
2026-04-21 11:26 -1.43000 116.75427 2518 ft 217 kts 304°
2026-04-21 11:27 -1.42040 116.74344 2517 ft 204 kts 328°
2026-04-21 11:27 -1.40792 116.73713 2520 ft 201 kts 340°
2026-04-21 11:27 -1.39497 116.73179 2497 ft 201 kts 340°
2026-04-21 11:27 -1.38202 116.72642 2496 ft 201 kts 341°
2026-04-21 11:28 -1.36939 116.72116 2491 ft 195 kts 341°
2026-04-21 11:28 -1.35692 116.71596 2493 ft 194 kts 340°
2026-04-21 11:28 -1.34447 116.71080 2493 ft 194 kts 341°
2026-04-21 11:28 -1.33193 116.70567 2495 ft 195 kts 341°
2026-04-21 11:29 -1.31939 116.70058 2493 ft 194 kts 342°
2026-04-21 11:29 -1.30636 116.69871 2492 ft 189 kts 10°
2026-04-21 11:29 -1.29431 116.70357 2417 ft 190 kts 39°
2026-04-21 11:29 -1.28677 116.71400 2300 ft 185 kts 70°
2026-04-21 11:30 -1.28599 116.72612 2241 ft 169 kts 100°
2026-04-21 11:30 -1.29020 116.73654 2208 ft 158 kts 111°
2026-04-21 11:30 -1.29472 116.74634 2160 ft 153 kts 111°
2026-04-21 11:30 -1.29912 116.75590 2141 ft 150 kts 110°
2026-04-21 11:31 -1.30339 116.76515 2118 ft 145 kts 110°
2026-04-21 11:31 -1.30755 116.77422 2083 ft 143 kts 110°
2026-04-21 11:31 -1.31125 116.78343 1986 ft 141 kts 98°
2026-04-21 11:31 -1.31114 116.79293 1868 ft 137 kts 73°
2026-04-21 11:32 -1.30766 116.80170 1700 ft 135 kts 65°
2026-04-21 11:32 -1.30403 116.81021 1536 ft 135 kts 65°
2026-04-21 11:32 -1.30032 116.81895 1356 ft 135 kts 65°
2026-04-21 11:32 -1.29663 116.82764 1187 ft 136 kts 65°
2026-04-21 11:33 -1.29297 116.83624 1009 ft 136 kts 65°
2026-04-21 11:33 -1.28919 116.84513 845 ft 138 kts 66°
2026-04-21 11:33 -1.28549 116.85387 680 ft 139 kts 66°
2026-04-21 11:33 -1.28173 116.86293 488 ft 140 kts 66°
2026-04-21 11:34 -1.27782 116.87187 288 ft 139 kts 62°
2026-04-21 11:34 -1.27418 116.88083 156 ft 141 kts 66°
2026-04-21 11:34 -1.27042 116.88958 21 ft 125 kts 68°
2026-04-21 11:34 -1.26769 116.89605 25 ft 77 kts 67°
2026-04-21 11:35 -1.26624 116.89943 23 ft 44 kts 67°
2026-04-21 11:35 -1.26547 116.90104 20 ft 15 kts 39°
2026-04-21 11:35 -1.26486 116.90111 22 ft 4 kts 337°
2026-04-21 11:35 -1.26468 116.90104 21 ft 2 kts 337°
2026-04-21 11:36 -1.26461 116.90101 21 ft 0 kts 337°
2026-04-21 11:36 -1.26450 116.90096 22 ft 4 kts 337°
2026-04-21 11:36 -1.26396 116.90074 21 ft 12 kts 337°
2026-04-21 11:36 -1.26325 116.90057 21 ft 7 kts 19°
2026-04-21 11:37 -1.26279 116.90057 21 ft 5 kts 340°
2026-04-21 11:37 -1.26251 116.90046 23 ft 4 kts 339°
2026-04-21 11:37 -1.26234 116.90039 21 ft 0 kts 338°